Weather History for Scottsboro, AL

Change the Weather History Date:

Saturday, April 20, 2013

  Actual Average (KHSV) Record (KHSV)
Temperature  
Mean Temperature 48 °F 63 °F  
Max Temperature 62 °F 75 °F 90 °F (1971)
Min Temperature 33 °F 51 °F 30 °F (1983)
Degree Days  
Heating Degree Days 18 4  
Month to date heating degree days 123  
Since 1 July heating degree days 2943  
Cooling Degree Days 0 2  
Month to date cooling degree days 31  
Year to date cooling degree days 45  
Moisture  
Dew Point 33 °F    
Average Humidity 64    
Maximum Humidity 100    
Minimum Humidity 26    
Precipitation  
Precipitation 0.00 in 0.14 in 2.37 in (1996)
Month to date precipitation 2.85  
Year to date precipitation 17.79  
Snow  
Snow 0.00 in - - ()
Month to date snowfall  
Since 1 July snowfall  
Snow Depth -    
Sea Level Pressure  
Sea Level Pressure 30.23 in    
Wind  
Wind Speed 2 mph (North)    
Max Wind Speed 12 mph    
Max Gust Speed 20 mph    
Visibility 10 miles    
Events Fog    
T = Trace of Precipitation, MM = Missing Value Source: NWS Daily Summary

Daily Weather History Graph

Daily Weather History Graph

Search for Another Location

Airport:

Trip Planner

Search our weather history database for the weather conditions in past years. The results will help you decide how hot, cold, wet, or windy it might be!

Date:

Astronomy

Apr. 20, 2013 Rise Set
Actual Time 6:05 AM CDT 7:20 PM CDT
Civil Twilight 5:39 AM CDT 7:46 PM CDT
Nautical Twilight 5:08 AM CDT 8:18 PM CDT
Astronomical Twilight 4:35 AM CDT 8:50 PM CDT
Moon 2:15 PM CDT (4/20) 2:41 AM CDT (4/20)
Length of Visible Light 14h 07m
Length of Day
13h 14m
Waxing Gibbous, 71% of the Moon is Illuminated
Apr 20
Waxing Gibbous
Apr 25
Full
May 2
Last Quarter
May 9
New
May 17
First Quarter

Hourly Weather History & Observations

Time (CDT) Temp. Windchill Dew Point Humidity Pressure Visibility Wind Dir Wind Speed Gust Speed Precip Events Conditions
12:15 AM 39.2 °F - 35.6 °F 87% 30.17 in 10.0 mi Calm Calm - N/A   Clear
12:35 AM 39.2 °F - 35.6 °F 87% 30.17 in 10.0 mi Calm Calm - N/A   Clear
12:55 AM 37.4 °F - 35.6 °F 93% 30.17 in 10.0 mi Calm Calm - N/A   Clear
1:35 AM 37.4 °F - 35.6 °F 93% 30.17 in 10.0 mi Calm Calm - N/A   Clear
1:55 AM 37.4 °F - 35.6 °F 93% 30.17 in 10.0 mi Calm Calm - N/A   Clear
2:15 AM 37.4 °F - 33.8 °F 87% 30.16 in 10.0 mi Calm Calm - N/A   Clear
2:35 AM 35.6 °F - 33.8 °F 93% 30.16 in 10.0 mi Calm Calm - N/A   Clear
2:55 AM 35.6 °F - 33.8 °F 93% 30.17 in 10.0 mi Calm Calm - N/A   Clear
3:15 AM 35.6 °F - 33.8 °F 93% 30.17 in 10.0 mi Calm Calm - N/A   Clear
3:35 AM 35.6 °F - 33.8 °F 93% 30.17 in 10.0 mi Calm Calm - N/A   Clear
3:55 AM 35.6 °F - 32.0 °F 87% 30.17 in 10.0 mi Calm Calm - N/A   Clear
4:15 AM 35.6 °F - 32.0 °F 87% 30.18 in 10.0 mi Calm Calm - N/A   Clear
4:35 AM 35.6 °F - 32.0 °F 87% 30.18 in 10.0 mi Calm Calm - N/A   Clear
4:55 AM 33.8 °F - 32.0 °F 93% 30.18 in 10.0 mi Calm Calm - N/A   Clear
5:15 AM 33.8 °F - 32.0 °F 93% 30.19 in 10.0 mi Calm Calm - N/A   Clear
5:35 AM 33.8 °F - 32.0 °F 93% 30.19 in 10.0 mi Calm Calm - N/A   Clear
5:55 AM 33.8 °F - 32.0 °F 93% 30.20 in 10.0 mi Calm Calm - N/A   Clear
6:15 AM 33.8 °F - 32.0 °F 93% 30.21 in 10.0 mi Calm Calm - N/A   Clear
6:35 AM 33.8 °F - 32.0 °F 93% 30.21 in 10.0 mi Calm Calm - N/A   Clear
6:55 AM 33.8 °F - 32.0 °F 93% 30.22 in 10.0 mi Calm Calm - N/A   Mostly Cloudy
7:15 AM 35.6 °F - 35.6 °F 100% 30.23 in 4.0 mi Calm Calm - N/A   Overcast
7:35 AM 37.4 °F 34.9 °F 37.4 °F 100% 30.24 in 0.2 mi NNE 3.5 mph - N/A Fog Fog
7:55 AM 37.4 °F - 37.4 °F 100% 30.24 in 0.2 mi Calm Calm - N/A Fog Fog
8:15 AM 39.2 °F - 39.2 °F 100% 30.25 in 4.0 mi Calm Calm - N/A   Overcast
8:35 AM 41.0 °F - 39.2 °F 93% 30.25 in 10.0 mi Calm Calm - N/A   Mostly Cloudy
8:55 AM 44.6 °F - 37.4 °F 76% 30.26 in 10.0 mi Calm Calm - N/A   Clear
9:15 AM 46.4 °F - 37.4 °F 71% 30.26 in 10.0 mi Calm Calm - N/A   Clear
9:35 AM 48.2 °F - 37.4 °F 66% 30.26 in 10.0 mi NNW 3.5 mph - N/A   Clear
9:55 AM 50.0 °F - 35.6 °F 58% 30.27 in 10.0 mi Calm Calm - N/A   Clear
10:15 AM 50.0 °F - 37.4 °F 62% 30.28 in 10.0 mi Calm Calm - N/A   Clear
10:35 AM 53.6 °F - 35.6 °F 51% 30.27 in 10.0 mi NE 8.1 mph - N/A   Clear
10:55 AM 53.6 °F - 32.0 °F 44% 30.27 in 10.0 mi North 4.6 mph - N/A   Clear
11:15 AM 55.4 °F - 35.6 °F 47% 30.27 in 10.0 mi ENE 5.8 mph - N/A   Clear
11:55 AM 57.2 °F - 28.4 °F 33% 30.25 in 10.0 mi North 6.9 mph 16.1 mph N/A   Clear
12:15 PM 57.2 °F - 32.0 °F 38% 30.25 in 10.0 mi ENE 8.1 mph - N/A   Clear
12:35 PM 59.0 °F - 26.6 °F 29% 30.25 in 10.0 mi North 4.6 mph 19.6 mph N/A   Clear
12:55 PM 59.0 °F - 26.6 °F 29% 30.24 in 10.0 mi North 9.2 mph - N/A   Clear
1:15 PM 59.0 °F - 28.4 °F 31% 30.24 in 10.0 mi North 10.4 mph 19.6 mph N/A   Clear
1:35 PM 59.0 °F - 28.4 °F 31% 30.24 in 10.0 mi NE 10.4 mph 16.1 mph N/A   Clear
1:55 PM 59.0 °F - 26.6 °F 29% 30.23 in 10.0 mi North 9.2 mph - N/A   Clear
2:15 PM 59.0 °F - 26.6 °F 29% 30.23 in 10.0 mi NNW 5.8 mph 16.1 mph N/A   Clear
2:35 PM 62.6 °F - 26.6 °F 26% 30.23 in 10.0 mi North 8.1 mph - N/A   Clear
2:55 PM 60.8 °F - 26.6 °F 27% 30.22 in 10.0 mi NW 4.6 mph - N/A   Clear
3:15 PM 62.6 °F - 28.4 °F 27% 30.22 in 10.0 mi NW 8.1 mph 16.1 mph N/A   Clear
3:35 PM 62.6 °F - 28.4 °F 27% 30.21 in 10.0 mi North 8.1 mph - N/A   Clear
3:55 PM 62.6 °F - 28.4 °F 27% 30.21 in 10.0 mi North 8.1 mph - N/A   Clear
4:15 PM 62.6 °F - 30.2 °F 30% 30.21 in 10.0 mi North 4.6 mph - N/A   Clear
4:35 PM 62.6 °F - 30.2 °F 30% 30.20 in 10.0 mi NNE 5.8 mph - N/A   Clear
4:55 PM 62.6 °F - 30.2 °F 30% 30.20 in 10.0 mi NNE 11.5 mph - N/A   Clear
5:15 PM 62.6 °F - 28.4 °F 27% 30.21 in 10.0 mi NNE 9.2 mph - N/A   Clear
5:35 PM 62.6 °F - 28.4 °F 27% 30.21 in 10.0 mi NNE 8.1 mph - N/A   Clear
5:55 PM 62.6 °F - 30.2 °F 30% 30.20 in 10.0 mi NNE 8.1 mph - N/A   Clear
6:15 PM 60.8 °F - 30.2 °F 31% 30.20 in 10.0 mi NNE 8.1 mph - N/A   Clear
6:35 PM 59.0 °F - 30.2 °F 34% 30.21 in 10.0 mi NNE 6.9 mph - N/A   Clear
6:55 PM 59.0 °F - 32.0 °F 36% 30.21 in 10.0 mi NNE 5.8 mph - N/A   Clear
7:15 PM 57.2 °F - 32.0 °F 38% 30.22 in 10.0 mi North 5.8 mph - N/A   Clear
7:35 PM 53.6 °F - 35.6 °F 51% 30.23 in 10.0 mi Calm Calm - N/A   Clear
7:55 PM 51.8 °F - 35.6 °F 54% 30.24 in 10.0 mi Calm Calm - N/A   Clear
8:15 PM 50.0 °F - 37.4 °F 62% 30.24 in 10.0 mi Calm Calm - N/A   Clear
8:35 PM 48.2 °F - 37.4 °F 66% 30.26 in 10.0 mi Calm Calm - N/A   Clear
8:55 PM 48.2 °F - 37.4 °F 66% 30.26 in 10.0 mi Calm Calm - N/A   Clear
9:15 PM 48.2 °F - 35.6 °F 62% 30.27 in 10.0 mi Calm Calm - N/A   Clear
9:35 PM 46.4 °F - 37.4 °F 71% 30.28 in 10.0 mi Calm Calm - N/A   Clear
9:55 PM 46.4 °F - 39.2 °F 76% 30.28 in 10.0 mi Calm Calm - N/A   Clear
10:15 PM 44.6 °F - 39.2 °F 81% 30.28 in 10.0 mi Calm Calm - N/A   Clear
10:35 PM 44.6 °F - 39.2 °F 81% 30.29 in 10.0 mi Calm Calm - N/A   Clear
10:55 PM 44.6 °F - 39.2 °F 81% 30.29 in 10.0 mi Calm Calm - N/A   Clear
11:15 PM 42.8 °F - 39.2 °F 87% 30.29 in 10.0 mi Calm Calm - N/A   Clear
11:35 PM 42.8 °F - 37.4 °F 81% 30.29 in 10.0 mi Calm Calm - N/A   Clear
11:55 PM 41.0 °F - 37.4 °F 87% 30.28 in 10.0 mi Calm Calm - N/A   Clear